INMARSAT 3-F2

Last updated on Sun Jun 21 2026 00:03:03 GMT+0000 (Coordinated Universal Time)

1 24307U 96053A 26171.46574080 -.00000290 00000+0 00000+0 0 9990 2 24307 9.8639 53.9030 0006603 33.0245 135.6144 1.00002274108958
UTC large
Height (km)
Speed (km/s)
/
Latitude / Longitude
Inclination (degrees)
Orbital Period (minutes)
Azimuth
Elevation
Range (km)
Doppler Factor

Next 0 passes for location: London (51.5072 / 0.1276)

No passes found over London.
INMARSAT 3-F2